Flag for Spain Weather past 2 weeks in Madrid, Spain

Now
43 °F

Passing clouds.


Feels Like: 43 °F
Forecast: 35 / 62 °F
Wind: No wind

Location: Madrid / Barajas

Current Time: Feb 27, 2015 at 2:09:48 AM

Latest Report: Feb 27, 2015 at 1:00 AM


Visibility: 19 mi

Pressure: 30.22 "Hg

Humidity: 82%

Dew point: 38 °F

Location of MadridLocation

Historic Weather in Madrid — Graph

°F

Madrid temperature yesterday

Maximum temperature yesterday: 58 °F (at 2:00 PM)
Minimum temperature yesterday: 41 °F (at 8:00 AM)
Average temperature yesterday: 50 °F

Past Weeks' High & Low Weather Summary

 TemperatureHumidityPressure
High60 °F (Feb 15, 3:00 PM)95% (Feb 13, 8:00 AM)30.58 "Hg (Feb 13, 8:00 AM)
Low29 °F (Feb 20, 8:00 AM)33% (Feb 21, 6:00 PM)29.77 "Hg (Feb 21, 3:00 PM)
Average47 °F66%30.18 "Hg
* Reported Midnight between Feb 11 and Feb 12 — Midnight between Feb 26 and Feb 27, Madrid, Weather by CustomWeather, © 2015

Note: Actual official high and low records may vary slightly from our data, if they occured in-between our weather recording intervals... More about our weather records

Advertising

Madrid weather history for previous 24 hours

 ConditionsComfort  
Time TempWeatherWind HumidityBarometerVisibility
12:00 AM
Fri, Feb 27
45 °FPassing clouds.3 mph78%30.21 "Hg19 mi
11:00 PM
Thu, Feb 26
47 °FPassing clouds.No wind74%30.22 "Hg19 mi
10:00 PM48 °FOvercast.2 mph71%30.21 "Hg19 mi
9:00 PM50 °FOvercast.5 mph68%30.20 "Hg19 mi
8:00 PM53 °FOvercast.6 mph58%30.21 "Hg19 mi
7:00 PM51 °FOvercast.3 mph61%30.22 "Hg19 mi
6:00 PM54 °FOvercast.8 mph52%30.21 "Hg19 mi
5:00 PM56 °FOvercast.7 mph59%30.20 "Hg19 mi
4:00 PM56 °FOvercast.12 mph58%30.19 "Hg19 mi
3:00 PM55 °FOvercast.13 mph62%30.22 "Hg19 mi
2:00 PM58 °FOvercast.3 mph54%30.22 "Hg19 mi
1:00 PM58 °FOvercast.6 mph59%30.26 "Hg19 mi
12:00 PM57 °FOvercast.3 mph61%30.27 "Hg19 mi
11:00 AM54 °FScattered clouds.3 mph66%30.29 "Hg19 mi
10:00 AM50 °FPartly sunny.5 mph73%30.33 "Hg19 mi
9:00 AM43 °FPartly sunny.2 mph87%30.36 "Hg19 mi
8:00 AM41 °FPassing clouds.3 mph86%30.36 "Hg19 mi
7:00 AM43 °FPassing clouds.5 mph80%30.35 "Hg19 mi
6:00 AM44 °FPassing clouds.7 mph79%30.34 "Hg19 mi
5:00 AM47 °FPassing clouds.8 mph75%30.33 "Hg19 mi
3:00 AM51 °FCool.8 mph67%30.32 "Hg19 mi
2:00 AM50 °FPassing clouds.9 mph69%30.32 "Hg19 mi
Weather by CustomWeather, © 2015

See weather overviewHow to use our weather pages